Weather in Savannakhet

Laos     16°33′58″N   104°45′35″E
temp.,
°C
wind,
m/s
gust,
m/s
humid.,
%
clouds,
%
prec.,
mm/h
press.,
hPa
HPBL,
m
17 january, mon
mon1701:00+19ene23825 0.0 101555
04:00+17ne269180 0.0 1014124
07:00+18ne299299 0.0 1016263
10:00+27ene45495 0.0 1016937
13:00+32ne333233 0.0 10132275
16:00+33ne34274 0.0 10102761
19:00+25ene713541 0.0 1014720
22:00+21ene614715 0.0 1016708
18 january, tue
tue1801:00+19ne6138061 0.0 1016652
04:00+17ne514844 0.0 1016569
07:00+17ne514841 0.0 1018572
10:00+24ene79525 0.0 1018935
13:00+30ene67357 0.0 10141559
16:00+29ene87380 0.0 10121751
19:00+20ene712641 0.0 1015443
22:00+17ene514730 0.0 1017495
19 january, wed
wed1901:00+16ne513804 0.0 1017483
04:00+16ne5138332 0.0 1015473
07:00+16ne513831 0.0 1017511
10:00+24ene79533 0.0 1017989
13:00+30ene56383 0.0 10121790
16:00+28ene7843100 0.0 10101331
19:00+22ene712625 0.0 1013550
22:00+18ene513760 0.0 1014436
20 january, thu
thu2001:00+17ene412805 0.0 1014400
04:00+16ne310875 0.0 1013292
07:00+16ene29895 0.0 1014276
10:00+25e45545 0.0 1014801
13:00+31se11381 0.0 10101778
16:00+31wnw233489 0.0 10082426
19:00+23ene6116755 0.4 1011323
22:00+20ene39865 0.1 1013261
21 january, fri
fri2101:00+18ne398988 0.2 1012323
04:00+18ne388876 0.1 1012318
07:00+18nne269252 0.5 1013210
10:00+24ene346643 0.4 1015685
13:00+29nnw114991 0.5 10111372
16:00+30w22449 0.0 10081675
19:00+23n22704 0.8 101015
22:00+20nne22884 0.9 101227